Location: Poughquag
(41.6090°N, 73.6820°W)
Time: 07:29:28
(UTC-04:00)

Explorer 11/Cluster Stage 4 - Visible Passes

Search period start: 29 May 2020 00:00
Search period end: 08 June 2020 00:00
Orbit: 467 x 1259 km, 28.8° (Epoch: 28 May)

Date Brightness Start Highest point End Pass type
(mag) Time Alt. Az. Time Alt. Az. Time Alt. Az.
03 Jun 8.7 04:41:24 10° S 04:43:32 12° SSE 04:45:48 10° SE visible
04 Jun 8.5 04:30:18 10° S 04:32:35 13° SSE 04:35:02 10° SE visible
05 Jun 8.4 04:19:19 10° S 04:21:39 13° SSE 04:24:12 10° SE visible
06 Jun 8.3 04:08:23 10° S 04:10:45 13° SSE 04:13:19 10° SE visible
07 Jun 8.1 03:58:10 12° S 03:59:52 14° SSE 04:02:24 10° SE visible
